Location: Newark
(50.0306°N, 2.3272°E)
Time: 20:56:59
(UTC+00:00)

Vanguard 1 - Pass Details

Date: 13 December 2019
Orbit: 650 x 3833 km, 34.2° (Epoch: 28 January)

Event Time Altitude Azimuth Distance (km) Brightness Sun altitude
Rises 06:20:41 0° 259° (W) 7,956 14.2 -12.0°
Reaches altitude 10° 06:26:29 10° 255° (WSW) 6,931 13.9 -11.2°
Maximum altitude 06:47:11 47° 192° (SSW) 3,860 13.2 -8.2°
Drops below altitude 10° 07:01:06 10° 125° (SE) 4,807 15.4 -6.2°
Sets 07:04:17 0° 119° (ESE) 5,448 16.9 -5.7°
